Hourly Data Report for October 05, 2017

All times are specified in Local Standard Time (LST). Add 1 hour to adjust for Daylight Saving Time where and when it is observed.

GREENWOOD A
NOVA SCOTIA

44°59'00.000" N
64°55'00.000" W
28.00 m
8202000
71397
YZX

Download Data

Hourly Data (October 2017)
Hourly Data Report for October 5, 2017
Temp Definition
°C
Dew Point Temp Definition
°C
Rel Hum Definition
%
Wind Dir Definition
10's deg

Wind Spd Definition
km/h
Visibility Definition
km
Stn Press Definition
kPa
Hmdx Definition


Wind Chill Definition


Weather Definition


TIME
00:00 14.3 12.3 88 22 7 24.1 101.09     Mainly Clear
01:00 14.5 12.5 88 23 15 24.1 101.04     Mainly Clear
02:00 14.8 12.6 87 22 11 24.1 100.92     Mainly Clear
03:00 16.4 13.3 82 22 20 24.1 100.85     Mostly Cloudy
04:00 17.2 13.8 80 24 22 24.1 100.86     Mostly Cloudy
05:00 16.9 13.8 82 24 19 24.1 100.84     Mostly Cloudy
06:00 16.4 14.2 87 25 13 24.1 100.86     Mostly Cloudy
07:00 16.0 14.1 88 24 19 24.1 100.91     Mainly Clear
08:00 16.7 14.3 86 24 20 24.1 100.95     Mainly Clear
09:00 18.0 14.5 80 26 19 24.1 101.01     Mainly Clear
10:00 19.5 13.6 69 26 15 24.1 101.04     Mainly Clear
11:00 20.0 12.7 63 27 17 24.1 101.05     Mainly Clear
12:00 20.0 12.7 63 29 17 24.1 101.02     Mainly Clear
13:00 20.6 13.2 63 28 24 24.1 100.98     Mainly Clear
14:00 21.6 12.2 55 27 22 24.1 100.96     Mainly Clear
15:00 20.9 12.1 57 28 24 24.1 100.93     Mostly Cloudy
16:00 20.9 12.1 57 25 20 24.1 100.93     Mostly Cloudy
17:00 20.1 10.7 55 25 17 24.1 100.94     Mostly Cloudy
18:00 18.0 10.1 60 25 6 24.1 100.97     Mostly Cloudy
19:00 16.2 10.7 70 21 6 24.1 101.01     Mostly Cloudy
20:00 14.4 10.4 77 22 6 24.1 101.07     Mainly Clear
21:00 12.9 9.5 80 24 11 24.1 101.12     Mainly Clear
22:00 11.8 8.7 81 25 7 24.1 101.17     Mainly Clear
23:00 10.9 8.3 84 25 6 24.1 101.13     Mainly Clear

Notes on Data Quality.

Legend

  • E = Estimated
  • M = Missing
  • NA = Not Available
  • ‡ = Partner data that is not subject to review by the National Climate Archives
Date modified: